Havre, MT

4:35 AM MST on February 26, 2017 (GMT -0700)
Havre City-County

Weather History for KHVR - August, 2014

Change the Weather History Date:

Sunday, August 10, 2014

  Actual Average Record
Temperature  
Mean Temperature 72 °F 70 °F  
Max Temperature 91 °F 86 °F 103 °F (1984)
Min Temperature 53 °F 54 °F 36 °F (1997)
Degree Days  
Heating Degree Days 0 1  
Month to date heating degree days 0 8  
Since 1 June heating degree days 175 171  
Since 1 July heating degree days 0 38  
Cooling Degree Days 7 6  
Month to date cooling degree days 81 66  
Year to date cooling degree days 295 287  
Since 1 June cooling degree days 288 276  
Growing Degree Days 22 (Base 50)    
Moisture  
Dew Point 48 °F    
Average Humidity 52    
Maximum Humidity 83    
Minimum Humidity 21    
Precipitation  
Precipitation 0.00 in 0.03 in 0.52 in (1976)
Month to date precipitation 0.07 0.34  
Year to date precipitation 6.71 7.90  
Snow  
Snow 0.00 in 0.00 in 0.00 in (1999)
Month to date snowfall 0.0 0.0  
Since 1 June snowfall 0.0 0.0  
Since 1 July snowfall 0.0 0.0  
Snow Depth 0.00 in    
Sea Level Pressure  
Sea Level Pressure 30.13 in    
Wind  
Wind Speed 8 mph (ENE)    
Max Wind Speed 16 mph    
Max Gust Speed 19 mph    
Visibility 10 miles    
Events      
T = Trace of Precipitation, MM = Missing Value Source: NWS Daily Summary

Daily Weather History Graph

Daily Weather History Graph

Search for Another Location

Airport or City:

Trip Planner

Search our weather history database for the weather conditions in past years. The results will help you decide how hot, cold, wet, or windy it might be!

Date:

Astronomy

Aug. 10, 2014 Rise Set
Actual Time 6:05 AM MDT 8:42 PM MDT
Civil Twilight 5:30 AM MDT 9:17 PM MDT
Nautical Twilight 4:45 AM MDT 10:02 PM MDT
Astronomical Twilight 3:52 AM MDT 10:54 PM MDT
Moon 8:23 PM MDT (8/10) 6:06 AM MDT (8/10)
Length of Visible Light 15h 47m
Length of Day
14h 36m
Full, 100% of the Moon is Illuminated
Aug 10
Full
Aug 10
Full
Aug 17
Last Quarter
Aug 25
New
Sep 2
First Quarter

Hourly Weather History & Observations

Time (MDT) Temp. Dew Point Humidity Pressure Visibility Wind Dir Wind Speed Gust Speed Precip Events Conditions
12:53 AM 63.0 °F 46.0 °F 54% 30.16 in 10.0 mi East 12.7 mph - N/A   Clear
1:53 AM 60.1 °F 46.9 °F 62% 30.15 in 10.0 mi ENE 9.2 mph - N/A   Clear
2:53 AM 57.2 °F 48.2 °F 72% 30.18 in 10.0 mi ENE 8.1 mph - N/A   Clear
3:53 AM 55.9 °F 48.0 °F 75% 30.15 in 10.0 mi East 6.9 mph - N/A   Clear
4:53 AM 54.0 °F 46.9 °F 77% 30.15 in 10.0 mi East 3.5 mph - N/A   Clear
5:53 AM 53.1 °F 46.9 °F 80% 30.16 in 10.0 mi East 5.8 mph - N/A   Clear
6:53 AM 54.0 °F 48.0 °F 80% 30.17 in 10.0 mi East 6.9 mph - N/A   Clear
7:53 AM 59.0 °F 48.2 °F 67% 30.20 in 10.0 mi East 6.9 mph - N/A   Clear
8:53 AM 66.0 °F 48.9 °F 54% 30.17 in 10.0 mi ENE 9.2 mph - N/A   Partly Cloudy
9:53 AM 71.1 °F 48.9 °F 45% 30.17 in 10.0 mi NE 9.2 mph - N/A   Scattered Clouds
10:53 AM 77.0 °F 48.9 °F 37% 30.16 in 10.0 mi ENE 5.8 mph - N/A   Partly Cloudy
11:53 AM 81.0 °F 48.9 °F 33% 30.14 in 10.0 mi Variable 3.5 mph - N/A   Partly Cloudy
12:53 PM 84.9 °F 48.0 °F 28% 30.13 in 10.0 mi NE 8.1 mph - N/A   Clear
1:53 PM 86.0 °F 48.0 °F 27% 30.11 in 10.0 mi East 10.4 mph 17.3 mph N/A   Clear
2:53 PM 87.1 °F 48.0 °F 26% 30.10 in 10.0 mi ENE 10.4 mph 16.1 mph N/A   Clear
3:53 PM 88.0 °F 46.0 °F 23% 30.09 in 10.0 mi NE 8.1 mph - N/A   Clear
4:53 PM 90.0 °F 44.1 °F 20% 30.08 in 10.0 mi Calm Calm - N/A   Clear
5:53 PM 87.8 °F 44.6 °F 22% 30.12 in 10.0 mi East 11.5 mph - N/A   Clear
6:53 PM 86.0 °F 48.0 °F 27% 30.08 in 10.0 mi East 12.7 mph - N/A   Clear
7:53 PM 82.9 °F 48.9 °F 31% 30.08 in 10.0 mi East 10.4 mph - N/A   Clear
8:53 PM 75.9 °F 51.1 °F 42% 30.09 in 10.0 mi East 8.1 mph - N/A   Clear
9:53 PM 73.9 °F 48.9 °F 41% 30.10 in 10.0 mi East 10.4 mph - N/A   Clear
10:53 PM 73.0 °F 48.0 °F 41% 30.10 in 10.0 mi East 11.5 mph - N/A   Clear
11:53 PM 68.0 °F 48.0 °F 49% 30.10 in 10.0 mi ENE 8.1 mph - N/A   Clear